Weather History for North Wilkesboro, NC

Change the Weather History Date:

Sunday, January 22, 2012

  Actual Average Record
Temperature  
Mean Temperature 40 °F -  
Max Temperature 46 °F 48 °F 98 °F (2001)
Min Temperature 35 °F 21 °F -7 °F (1985)
Degree Days  
Heating Degree Days 24    
Moisture  
Dew Point 35 °F    
Average Humidity 92    
Maximum Humidity 100    
Minimum Humidity 75    
Precipitation  
Precipitation 0.00 in - - ()
Sea Level Pressure  
Sea Level Pressure 30.29 in    
Wind  
Wind Speed - (North)    
Max Wind Speed -    
Max Gust Speed -    
Visibility 6 miles    
Events      
Averages and records for this station are not official NWS values.
T = Trace of Precipitation, MM = Missing Value Source: NWS Daily Summary

Daily Weather History Graph

Daily Weather History Graph

Search for Another Location

Airport:

Trip Planner

Search our weather history database for the weather conditions in past years. The results will help you decide how hot, cold, wet, or windy it might be!

Date:

Astronomy

Jan. 22, 2012 Rise Set
Actual Time 7:32 AM EST 5:39 PM EST
Civil Twilight 7:04 AM EST 6:07 PM EST
Nautical Twilight 6:33 AM EST 6:38 PM EST
Astronomical Twilight 6:02 AM EST 7:09 PM EST
Moon 6:47 AM EST (1/22) 5:19 PM EST (1/22)
Length of Visible Light 11h 02m
Length of Day
10h 07m
Waning Crescent, 0% of the Moon is Illuminated
Jan 22
Waning Crescent
Jan 23
New
Jan 30
First Quarter
Feb 7
Full
Feb 14
Last Quarter

Hourly Weather History & Observations

Time (EST) Temp. Dew Point Humidity Pressure Visibility Wind Dir Wind Speed Gust Speed Precip Events Conditions
12:15 AM 46.4 °F 44.6 °F 93% 30.14 in 10.0 mi North - - N/A   Overcast
12:35 AM 46.4 °F 46.4 °F 100% 30.14 in 5.0 mi North - - N/A   Overcast
1:15 AM 44.6 °F 44.6 °F 100% 30.16 in 1.0 mi North - - N/A   Overcast
1:35 AM 42.8 °F 42.8 °F 100% 30.18 in 0.8 mi North - - N/A   Overcast
1:55 AM 41.0 °F 41.0 °F 100% 30.19 in 0.5 mi North - - N/A   Overcast
2:15 AM 39.2 °F 39.2 °F 100% 30.20 in 0.8 mi North - - N/A   Overcast
2:35 AM 39.2 °F 39.2 °F 100% 30.20 in 1.2 mi North - - N/A   Overcast
2:55 AM 39.2 °F 39.2 °F 100% 30.21 in 1.0 mi North - - N/A   Overcast
3:15 AM 37.4 °F 37.4 °F 100% 30.21 in 1.0 mi North - - N/A   Overcast
3:35 AM 37.4 °F 37.4 °F 100% 30.22 in 3.0 mi North - - N/A   Overcast
3:55 AM 37.4 °F 37.4 °F 100% 30.22 in 2.5 mi North - - N/A   Overcast
4:15 AM 37.4 °F 37.4 °F 100% 30.23 in 3.0 mi North - - N/A   Overcast
4:35 AM 37.4 °F 37.4 °F 100% 30.24 in 2.5 mi North - - N/A   Overcast
4:55 AM 37.4 °F 37.4 °F 100% 30.23 in 3.0 mi North - - N/A   Overcast
5:15 AM 35.6 °F 35.6 °F 100% 30.24 in 7.0 mi North - - N/A   Overcast
5:35 AM 35.6 °F 35.6 °F 100% 30.25 in 7.0 mi North - - N/A   Overcast
5:55 AM 35.6 °F 35.6 °F 100% 30.25 in 5.0 mi North - - N/A   Overcast
6:15 AM 35.6 °F 35.6 °F 100% 30.26 in 10.0 mi North - - N/A   Overcast
6:35 AM 35.6 °F 35.6 °F 100% 30.26 in 7.0 mi North - - N/A   Overcast
6:55 AM 35.6 °F 35.6 °F 100% 30.27 in 7.0 mi North - - N/A   Overcast
7:15 AM 35.6 °F 33.8 °F 93% 30.28 in 7.0 mi North - - N/A   Overcast
7:55 AM 35.6 °F 33.8 °F 93% 30.29 in 7.0 mi North - - N/A   Overcast
8:15 AM 35.6 °F 33.8 °F 93% 30.30 in 5.0 mi North - - N/A   Overcast
8:35 AM 35.6 °F 33.8 °F 93% 30.31 in 5.0 mi North - - N/A   Overcast
9:15 AM 35.6 °F 33.8 °F 93% 30.32 in 7.0 mi North - - N/A   Overcast
9:35 AM 35.6 °F 33.8 °F 93% 30.32 in 7.0 mi North - - N/A   Overcast
9:55 AM 35.6 °F 33.8 °F 93% 30.34 in 5.0 mi North - - N/A   Overcast
10:15 AM 35.6 °F 33.8 °F 93% 30.34 in 5.0 mi North - - N/A   Overcast
10:35 AM 35.6 °F 33.8 °F 93% 30.34 in 5.0 mi North - - N/A   Overcast
10:55 AM 35.6 °F 33.8 °F 93% 30.34 in 5.0 mi North - - N/A   Overcast
11:15 AM 35.6 °F 33.8 °F 93% 30.35 in 7.0 mi North - - N/A   Overcast
11:35 AM 35.6 °F 32.0 °F 87% 30.35 in 7.0 mi North - - N/A   Overcast
11:55 AM 35.6 °F 33.8 °F 93% 30.34 in 10.0 mi North - - N/A   Overcast
12:15 PM 35.6 °F 32.0 °F 87% 30.35 in 10.0 mi North - - N/A   Overcast
12:35 PM 37.4 °F 32.0 °F 81% 30.34 in 10.0 mi North - - N/A   Overcast
1:15 PM 37.4 °F 32.0 °F 81% 30.34 in 10.0 mi North - - N/A   Overcast
1:35 PM 37.4 °F 32.0 °F 81% 30.33 in 10.0 mi North - - N/A   Overcast
1:55 PM 37.4 °F 30.2 °F 75% 30.33 in 10.0 mi North - - N/A   Overcast
2:15 PM 37.4 °F 32.0 °F 81% 30.32 in 10.0 mi North - - N/A   Overcast
2:35 PM 37.4 °F 32.0 °F 81% 30.32 in 10.0 mi North - - N/A   Overcast
3:15 PM 37.4 °F 32.0 °F 81% 30.30 in 10.0 mi North - - N/A   Overcast
3:35 PM 37.4 °F 32.0 °F 81% 30.30 in 10.0 mi North - - N/A   Overcast
3:55 PM 37.4 °F 32.0 °F 81% 30.30 in 10.0 mi North - - N/A   Overcast
4:15 PM 37.4 °F 32.0 °F 81% 30.31 in 10.0 mi North - - N/A   Overcast
4:35 PM 37.4 °F 32.0 °F 81% 30.31 in 10.0 mi North - - N/A   Overcast
4:55 PM 37.4 °F 32.0 °F 81% 30.32 in 10.0 mi North - - N/A   Overcast
5:15 PM 37.4 °F 32.0 °F 81% 30.32 in 10.0 mi North - - N/A   Overcast
5:35 PM 37.4 °F 32.0 °F 81% 30.32 in 10.0 mi North - - N/A   Overcast
5:55 PM 37.4 °F 32.0 °F 81% 30.32 in 10.0 mi North - - N/A   Overcast
6:15 PM 37.4 °F 32.0 °F 81% 30.32 in 10.0 mi North - - N/A   Overcast
6:35 PM 37.4 °F 32.0 °F 81% 30.31 in 10.0 mi North - - N/A   Overcast
7:15 PM 37.4 °F 32.0 °F 81% 30.32 in 10.0 mi North - - N/A   Overcast
7:35 PM 37.4 °F 33.8 °F 87% 30.32 in 10.0 mi North - - N/A   Overcast
7:55 PM 35.6 °F 33.8 °F 93% 30.32 in 10.0 mi North - - N/A   Overcast
8:15 PM 35.6 °F 33.8 °F 93% 30.32 in 7.0 mi North - - N/A   Overcast
8:35 PM 35.6 °F 33.8 °F 93% 30.32 in 5.0 mi North - - N/A   Overcast
8:55 PM 35.6 °F 35.6 °F 100% 30.32 in 3.0 mi North - - N/A   Overcast
9:15 PM 35.6 °F 35.6 °F 100% 30.32 in 2.0 mi North - - N/A   Overcast
9:35 PM 35.6 °F 35.6 °F 100% 30.32 in 1.8 mi North - - N/A   Overcast
9:55 PM 35.6 °F 35.6 °F 100% 30.32 in 1.5 mi North - - N/A   Overcast
10:15 PM 35.6 °F 35.6 °F 100% 30.32 in 1.8 mi North - - N/A   Overcast
10:35 PM 35.6 °F 35.6 °F 100% 30.30 in 2.0 mi North - - N/A   Overcast
10:55 PM 35.6 °F 35.6 °F 100% 30.30 in 3.0 mi North - - N/A   Overcast
11:15 PM 35.6 °F 35.6 °F 100% 30.30 in 2.5 mi North - - N/A   Overcast
11:35 PM 35.6 °F 35.6 °F 100% 30.29 in 2.5 mi North - - N/A   Overcast
11:55 PM 35.6 °F 35.6 °F 100% 30.28 in 1.5 mi North - - N/A   Overcast